Torna al catalogo

SL-16 DEB

LostLEO
NORAD 42247·DEBRIS·🇷🇺 Russia

Lanciato Mar 26, 1993 da Baikonur Cosmodrome

Loading…

Prossimi Passaggi (prossime 24 ore)

TLE

ObsoletoSource: Space-Track

Epoca: Mar 16, 2025, 10:15 UTC

1 42247U 93016DB  25075.42757853  .00210602  00000-0  17909-1 0  9996
2 42247  70.9658  97.9802 0032588  39.6930 320.6610 14.96250917 70488

Traccia SL-16 DEB in tempo reale con AllMySat

Download on the App Store